{"data":{"norad_id":66434,"epoch":"2026-09-20T08:07:24.146688Z","epoch_age_seconds":107349,"freshness":"FRESH","line1":"1 66434U 25259N   26263.33847392  .00012433  00000+0  46044-3 0  9997","line2":"2 66434  42.9989 254.7818 0001496 271.9826  88.0854 15.27587539 49262","mean_motion":15.27587539,"eccentricity":0.0001496,"inclination_deg":42.9989,"raan_deg":254.7818,"arg_perigee_deg":271.9826,"mean_anomaly_deg":88.0854,"bstar":0.00046044,"rev_number":4926,"period_min":94.266283485309,"perigee_km":482.00009159151,"apogee_km":484.05295171719,"semimajor_km":6861.1635216544,"source":"CELESTRAK","updated_at":"2026-09-21T09:00:35.908593Z"}}